Belize, Belize

3:48 PM CST on March 30, 2017 (GMT -0600)
Philip S W Goldson International

Weather History for MZBZ - September, 2013

Change the Weather History Date:

Tuesday, September 3, 2013

  Actual Average Record
Temperature  
Mean Temperature 78 °F -  
Max Temperature 82 °F 88 °F 93 °F (2015)
Min Temperature 75 °F 75 °F 73 °F (1999)
Cooling Degree Days 14    
Growing Degree Days 28 (Base 50)    
Moisture  
Dew Point 76 °F    
Average Humidity 89    
Maximum Humidity 100    
Minimum Humidity 80    
Precipitation  
Precipitation 0.08 in 0.36 in - ()
Sea Level Pressure  
Sea Level Pressure 29.88 in    
Wind  
Wind Speed 4 mph ()    
Max Wind Speed 9 mph    
Max Gust Speed -    
Visibility 7.6 miles    
Events Thunderstorm    
Averages and records for this station are not official NWS values.
T = Trace of Precipitation, MM = Missing Value Source: Averaged Metar Reports

Daily Weather History Graph

Daily Weather History Graph

Search for Another Location

Airport or City:

Trip Planner

Search our weather history database for the weather conditions in past years. The results will help you decide how hot, cold, wet, or windy it might be!

Date:

Astronomy

Sep. 03, 2013 Rise Set
Actual Time 5:39 AM CST 6:05 PM CST
Civil Twilight 5:17 AM CST 6:26 PM CST
Nautical Twilight 4:52 AM CST 6:52 PM CST
Astronomical Twilight 4:26 AM CST 7:18 PM CST
Moon 4:00 AM CST (9/3) 4:48 PM CST (9/3)
Length of Visible Light 13h 09m
Length of Day
12h 25m
Waning Crescent, 3% of the Moon is Illuminated
Sep 3
Waning Crescent
Sep 5
New
Sep 12
First Quarter
Sep 19
Full
Sep 26
Last Quarter

Hourly Weather History & Observations

Time (CST) Temp. Heat Index Dew Point Humidity Pressure Visibility Wind Dir Wind Speed Gust Speed Precip Events Conditions
5:00 AM 75.2 °F - 75.2 °F 100% 29.86 in 6.2 mi North 5.8 mph - N/A   Mostly Cloudy
6:00 AM 76 °F - 75 °F 94% 29.90 in 12 mi NW 5.8 mph - - Thunderstorm Thunderstorm
6:00 AM 75.2 °F - 75.2 °F 100% 29.89 in 6.2 mi NW 5.8 mph - N/A Thunderstorm Thunderstorm
7:00 AM 77.0 °F - 75.2 °F 94% 29.92 in 6.2 mi NW 5.8 mph - N/A Thunderstorm Thunderstorm
8:00 AM 77.0 °F - 75.2 °F 94% 29.92 in 6.2 mi WNW 5.8 mph - N/A   Mostly Cloudy
9:00 AM 78 °F - 76 °F 91% 29.94 in 12 mi WNW 2.3 mph - -   Partly Cloudy
9:00 AM 78.8 °F - 75.2 °F 89% 29.93 in 6.2 mi WNW 2.3 mph - N/A   Mostly Cloudy
10:00 AM 78.8 °F - 77.0 °F 94% 29.95 in 6.2 mi Calm Calm - N/A   Mostly Cloudy
10:15 AM 78.8 °F - 77.0 °F 94% 29.94 in 6.2 mi WSW 2.3 mph - N/A   Mostly Cloudy
10:45 AM 78.8 °F - 77.0 °F 94% 29.92 in 6.2 mi SW 2.3 mph - N/A   Mostly Cloudy
11:00 AM 80.6 °F 87.1 °F 77.0 °F 89% 29.92 in 6.2 mi West 2.3 mph - N/A Thunderstorm Thunderstorm
12:00 PM 82 °F - 77 °F 80% 29.91 in 12 mi Calm Calm - - Thunderstorm Thunderstorm
12:00 PM 82.4 °F 90.9 °F 77.0 °F 84% 29.90 in 6.2 mi Calm Calm - N/A Thunderstorm Thunderstorm
1:00 PM 82.4 °F 90.9 °F 77.0 °F 84% 29.88 in 6.2 mi East 3.5 mph - N/A Thunderstorm Thunderstorm
1:45 PM 82.4 °F 90.9 °F 77.0 °F 84% 29.87 in 6.2 mi NNE 9.2 mph - N/A   Mostly Cloudy
2:00 PM 80.6 °F 86.2 °F 75.2 °F 84% 29.85 in 6.2 mi NNE 6.9 mph - N/A   Mostly Cloudy
3:00 PM 81 °F - 76 °F 82% 29.84 in 14 mi East 5.8 mph - -   Partly Cloudy
3:00 PM 80.6 °F 87.1 °F 77.0 °F 89% 29.84 in 6.2 mi East 5.8 mph - N/A   Mostly Cloudy
3:15 PM 80.6 °F 87.1 °F 77.0 °F 89% 29.82 in 6.2 mi East 5.8 mph - N/A   Overcast
4:00 PM 80.6 °F 86.2 °F 75.2 °F 84% 29.82 in 6.2 mi East 5.8 mph - N/A   Overcast
5:00 PM 80.6 °F 86.2 °F 75.2 °F 84% 29.83 in 6.2 mi Variable 2.3 mph - N/A   Overcast
6:00 PM 80 °F - 76 °F 84% 29.85 in 14 mi ESE 2.3 mph - -   Partly Cloudy
6:00 PM 78.8 °F - 77.0 °F 94% 29.85 in 6.2 mi ESE 2.3 mph - N/A   Overcast